Tracking 35334 objects as of 12-Sep-2026
HD Live streaming from Space Station
objects crossing your sky now

COSMOS 2019 DEB


COSMOS 2019 DEB is no longer on orbit


NORAD ID: 19988
Int'l Code: 1989-034E
Launch date: May 5, 1989
Source: Commonwealth of Independent States (former USSR) (CIS)
Launch site: PLESETSK MISSILE AND SPACE COMPLEX (PKMTR)
Decay date: 1989-05-20

Note: This is SATELLITE DEBRIS
Your satellite tracking list
Your tracking list is empty




NASA's NSSDC Master Catalog

Two Line Element Set (TLE):
1 19988U 89034  E 89140.47713080  .25008133 +40416-4 +12951-3 0  9993
2 19988 062.8426 308.4081 0041813 274.3746 085.3840 16.51644724002414
Source of the keplerian elements: AFSPC